When you browse on this site, cookies collect data to enhance your experience and personalize the content and advertising you see.
Visit our Privacy Policy to learn more. By continuing to use the site, you agree to this use of cookies and data.
  • In Romania
  • List of Countries
  • For 7 days
  • Water Temperature
  • Weather Map
  • Weather Widgets
  • user-avatar
    Login

    Hourly Weather Basse Santa Su

    Today, 6 December, Friday

    Time Temperature Precipitation Wind Pressure Humidity
    00:00 +24°C° 0 mm 2 mps 756 mmHg 25%
    01:00 +23°C° 0 mm 2 mps 756 mmHg 27%
    02:00 +21°C° 0 mm 2 mps 756 mmHg 28%
    03:00 +20°C° 0 mm 2 mps 756 mmHg 30%
    04:00 +20°C° 0 mm 2 mps 756 mmHg 31%
    05:00 +19°C° 0 mm 2 mps 756 mmHg 33%
    06:00 +20°C° 0 mm 2 mps 757 mmHg 30%
    07:00 +23°C° 0 mm 2 mps 758 mmHg 27%
    08:00 +24°C° 0 mm 3 mps 758 mmHg 24%
    09:00 +27°C° 0 mm 2 mps 758 mmHg 20%
    10:00 +30°C° 0 mm 2 mps 758 mmHg 17%
    11:00 +34°C° 0 mm 2 mps 758 mmHg 14%
    12:00 +36°C° 0 mm 2 mps 757 mmHg 13%
    13:00 +37°C° 0 mm 2 mps 756 mmHg 12%
    14:00 +37°C° 0 mm 1 mps 755 mmHg 11%
    15:00 +36°C° 0 mm 1 mps 755 mmHg 13%
    16:00 +34°C° 0 mm 1 mps 755 mmHg 14%
    17:00 +33°C° 0 mm 1 mps 755 mmHg 15%
    18:00 +31°C° 0 mm 1 mps 755 mmHg 17%
    19:00 +29°C° 0 mm 1 mps 756 mmHg 19%
    20:00 +27°C° 0 mm 1 mps 756 mmHg 21%
    21:00 +27°C° 0 mm 2 mps 757 mmHg 22%
    22:00 +26°C° 0 mm 2 mps 757 mmHg 23%
    23:00 +25°C° 0 mm 2 mps 757 mmHg 24%

    Tomorrow, 7 December, Saturday

    Time Temperature Precipitation Wind Pressure Humidity
    00:00 +24°C° 0 mm 2 mps 757 mmHg 25%
    01:00 +23°C° 0 mm 2 mps 757 mmHg 27%
    02:00 +21°C° 0 mm 2 mps 757 mmHg 28%
    03:00 +20°C° 0 mm 2 mps 757 mmHg 29%
    04:00 +20°C° 0 mm 2 mps 757 mmHg 29%
    05:00 +20°C° 0 mm 1 mps 757 mmHg 30%
    06:00 +21°C° 0 mm 2 mps 757 mmHg 27%
    07:00 +24°C° 0 mm 2 mps 758 mmHg 25%
    08:00 +25°C° 0 mm 2 mps 758 mmHg 22%
    09:00 +28°C° 0 mm 2 mps 758 mmHg 19%
    10:00 +31°C° 0 mm 2 mps 758 mmHg 16%
    11:00 +35°C° 0 mm 3 mps 757 mmHg 13%
    12:00 +36°C° 0 mm 2 mps 757 mmHg 12%
    13:00 +37°C° 0 mm 2 mps 756 mmHg 11%
    14:00 +39°C° 0 mm 2 mps 755 mmHg 11%
    15:00 +37°C° 0 mm 2 mps 755 mmHg 12%
    16:00 +35°C° 0 mm 1 mps 755 mmHg 13%
    17:00 +34°C° 0 mm 1 mps 755 mmHg 14%
    18:00 +32°C° 0 mm 1 mps 755 mmHg 16%
    19:00 +30°C° 0 mm 1 mps 756 mmHg 17%
    20:00 +28°C° 0 mm 2 mps 757 mmHg 18%
    21:00 +27°C° 0 mm 2 mps 757 mmHg 19%
    22:00 +27°C° 0 mm 2 mps 757 mmHg 20%
    23:00 +26°C° 0 mm 2 mps 757 mmHg 20%

    Day after tomorrow, 8 December, Sunday

    Time Temperature Precipitation Wind Pressure Humidity
    00:00 +25°C° 0 mm 2 mps 756 mmHg 20%
    01:00 +25°C° 0 mm 2 mps 756 mmHg 20%
    02:00 +24°C° 0 mm 2 mps 756 mmHg 19%
    03:00 +24°C° 0 mm 2 mps 756 mmHg 21%
    04:00 +23°C° 0 mm 2 mps 756 mmHg 22%
    05:00 +21°C° 0 mm 2 mps 756 mmHg 24%
    06:00 +24°C° 0 mm 2 mps 757 mmHg 23%
    07:00 +26°C° 0 mm 2 mps 757 mmHg 22%
    08:00 +27°C° 0 mm 3 mps 758 mmHg 21%
    09:00 +30°C° 0 mm 3 mps 757 mmHg 18%
    10:00 +34°C° 0 mm 3 mps 757 mmHg 15%
    11:00 +37°C° 0 mm 3 mps 757 mmHg 12%
    12:00 +39°C° 0 mm 3 mps 756 mmHg 12%
    13:00 +40°C° 0 mm 3 mps 755 mmHg 11%
    14:00 +42°C° 0 mm 3 mps 754 mmHg 10%
    15:00 +39°C° 0 mm 2 mps 754 mmHg 11%
    16:00 +38°C° 0 mm 2 mps 754 mmHg 12%
    17:00 +36°C° 0 mm 1 mps 754 mmHg 13%
    18:00 +35°C° 0 mm 2 mps 754 mmHg 15%
    19:00 +32°C° 0 mm 2 mps 755 mmHg 16%
    20:00 +30°C° 0 mm 2 mps 755 mmHg 17%
    21:00 +29°C° 0 mm 2 mps 756 mmHg 18%
    22:00 +28°C° 0 mm 2 mps 756 mmHg 19%
    23:00 +28°C° 0 mm 2 mps 756 mmHg 20%

    9 December, Monday

    Time Temperature Precipitation Wind Pressure Humidity
    00:00 +27°C° 0 mm 2 mps 756 mmHg 21%
    01:00 +26°C° 0 mm 2 mps 756 mmHg 21%
    02:00 +26°C° 0 mm 2 mps 755 mmHg 22%
    03:00 +25°C° 0 mm 2 mps 755 mmHg 22%
    04:00 +25°C° 0 mm 2 mps 755 mmHg 23%
    05:00 +24°C° 0 mm 2 mps 755 mmHg 23%
    06:00 +25°C° 0 mm 2 mps 756 mmHg 21%
    07:00 +27°C° 0 mm 2 mps 757 mmHg 19%
    08:00 +28°C° 0 mm 3 mps 757 mmHg 16%
    09:00 +31°C° 0 mm 3 mps 757 mmHg 13%
    10:00 +35°C° 0 mm 3 mps 756 mmHg 10%
    11:00 +38°C° 0 mm 4 mps 756 mmHg 7%
    12:00 +39°C° 0 mm 3 mps 755 mmHg 7%
    13:00 +40°C° 0 mm 3 mps 754 mmHg 6%
    14:00 +42°C° 0 mm 3 mps 754 mmHg 5%
    15:00 +40°C° 0 mm 2 mps 754 mmHg 6%
    16:00 +38°C° 0 mm 2 mps 754 mmHg 7%
    17:00 +37°C° 0 mm 2 mps 754 mmHg 7%
    18:00 +35°C° 0 mm 2 mps 754 mmHg 8%
    19:00 +32°C° 0 mm 2 mps 755 mmHg 9%
    20:00 +30°C° 0 mm 2 mps 756 mmHg 10%
    21:00 +29°C° 0 mm 2 mps 756 mmHg 10%
    22:00 +28°C° 0 mm 2 mps 756 mmHg 11%
    23:00 +28°C° 0 mm 2 mps 756 mmHg 11%

    10 December, Tuesday

    Time Temperature Precipitation Wind Pressure Humidity
    00:00 +27°C° 0 mm 2 mps 756 mmHg 12%
    01:00 +26°C° 0 mm 2 mps 756 mmHg 13%
    02:00 +24°C° 0 mm 2 mps 756 mmHg 14%
    03:00 +24°C° 0 mm 1 mps 756 mmHg 15%
    04:00 +23°C° 0 mm 1 mps 756 mmHg 16%
    05:00 +20°C° 0 mm 0 mps 756 mmHg 17%
    06:00 +24°C° 0 mm 1 mps 756 mmHg 15%
    07:00 +26°C° 0 mm 2 mps 757 mmHg 13%
    08:00 +28°C° 0 mm 2 mps 757 mmHg 11%
    09:00 +31°C° 0 mm 3 mps 757 mmHg 9%
    10:00 +35°C° 0 mm 4 mps 757 mmHg 7%
    11:00 +39°C° 0 mm 5 mps 756 mmHg 6%
    12:00 +40°C° 0 mm 4 mps 755 mmHg 6%
    13:00 +41°C° 0 mm 4 mps 754 mmHg 6%
    14:00 +42°C° 0 mm 4 mps 754 mmHg 6%
    15:00 +40°C° 0 mm 3 mps 754 mmHg 7%
    16:00 +38°C° 0 mm 2 mps 754 mmHg 7%
    17:00 +36°C° 0 mm 1 mps 754 mmHg 8%
    18:00 +34°C° 0 mm 1 mps 754 mmHg 9%
    19:00 +32°C° 0 mm 1 mps 755 mmHg 10%
    20:00 +30°C° 0 mm 1 mps 756 mmHg 11%
    21:00 +29°C° 0 mm 1 mps 756 mmHg 11%
    22:00 +28°C° 0 mm 2 mps 756 mmHg 10%
    23:00 +28°C° 0 mm 2 mps 756 mmHg 10%

    11 December, Wednesday

    Time Temperature Precipitation Wind Pressure Humidity
    00:00 +26°C° 0 mm 1 mps 756 mmHg 13%
    01:00 +25°C° 0 mm 1 mps 756 mmHg 16%
    02:00 +22°C° 0 mm 0 mps 756 mmHg 19%
    03:00 +23°C° 0 mm 1 mps 756 mmHg 19%
    04:00 +23°C° 0 mm 1 mps 756 mmHg 19%
    05:00 +23°C° 0 mm 1 mps 756 mmHg 18%
    06:00 +24°C° 0 mm 1 mps 756 mmHg 16%
    07:00 +26°C° 0 mm 2 mps 757 mmHg 14%
    08:00 +27°C° 0 mm 3 mps 757 mmHg 12%
    09:00 +30°C° 0 mm 3 mps 757 mmHg 10%
    10:00 +35°C° 0 mm 4 mps 756 mmHg 8%
    11:00 +38°C° 0 mm 4 mps 756 mmHg 6%
    12:00 +40°C° 0 mm 4 mps 755 mmHg 6%
    13:00 +41°C° 0 mm 4 mps 754 mmHg 6%
    14:00 +42°C° 0 mm 3 mps 753 mmHg 5%
    15:00 +40°C° 0 mm 3 mps 753 mmHg 6%
    16:00 +38°C° 0 mm 2 mps 753 mmHg 7%
    17:00 +36°C° 0 mm 1 mps 753 mmHg 7%
    18:00 +34°C° 0 mm 1 mps 754 mmHg 8%
    19:00 +32°C° 0 mm 2 mps 755 mmHg 9%
    20:00 +30°C° 0 mm 2 mps 755 mmHg 9%
    21:00 +29°C° 0 mm 2 mps 755 mmHg 10%
    22:00 +28°C° 0 mm 2 mps 756 mmHg 11%
    23:00 +27°C° 0 mm 2 mps 756 mmHg 12%
    Show more